Location: Castro Valley
(37.6940°N, 122.0850°W)
Time: 01:18:01
(UTC-08:00)

Amateur Radio Satellites - All Passes

Search period start: 24 November 2014 00:48
Search period end: 25 November 2014 00:48
Location: Castro Valley, 37.6940°N, 122.0850°W

Satellite Date Start Highest point End Downlink Frequencies (MHz)
Time Altitude Azimuth
STARS 24 Nov 01:03:30 01:06:05 16° 65° (ENE) 01:08:40 437.465
CUSAT 1 24 Nov 01:10:14 01:14:15 28° 265° (W) 01:19:18 437.405
ISS 24 Nov 01:17:57 01:20:31 20° 332° (NNW) 01:23:04 145.825
MaSat-1 24 Nov 01:19:30 01:21:49 79° 247° (WSW) 01:24:13 437.345
Oscar 19 24 Nov 01:23:04 01:28:06 51° 100° (E) 01:33:06 437.125/150
DANDE 24 Nov 01:26:25 01:30:00 22° 265° (W) 01:34:25 436.750
ITUPSAT 1 24 Nov 01:28:31 01:32:59 38° 262° (W) 01:37:29 437.325
KKS-1 24 Nov 01:37:19 01:41:40 54° 74° (ENE) 01:46:01 437.445
YUBILEINY 24 Nov 01:39:14 01:46:30 30° 84° (E) 01:53:44 435.215
SWISSCUBE 24 Nov 01:40:57 01:44:57 26° 264° (W) 01:48:59 437.505
JUGNU 24 Nov 01:55:04 01:57:48 13° 179° (S) 02:00:32 437.505
SRMSAT 24 Nov 02:02:35 02:04:19 11° 171° (S) 02:06:03 437.500
RS-15 24 Nov 02:11:03 02:22:17 75° 244° (WSW) 02:34:01 29.354- 29.394
ITAMSAT 1 24 Nov 02:11:08 02:16:13 55° 101° (E) 02:21:16 435.822/435.867
BEESAT 24 Nov 02:14:35 02:16:49 13° 268° (W) 02:19:03 436.000
Gurwin Techsat 1B 24 Nov 02:30:20 02:35:29 48° 100° (E) 02:40:35 435.225
STARS 24 Nov 02:37:57 02:42:11 45° 260° (W) 02:46:25 437.465
HORYU 2 24 Nov 02:46:45 02:50:38 28° 97° (E) 02:54:31 437.375
Oscar 19 24 Nov 03:03:32 03:07:00 19° 295° (WNW) 03:10:29 437.125/150
KKS-1 24 Nov 03:16:49 03:18:36 12° 268° (W) 03:20:24 437.445
AO-7 24 Nov 03:25:19 03:32:21 29° 96° (E) 03:39:20 29.400- 29.500
YUBILEINY 24 Nov 03:34:12 03:42:46 55° 282° (WNW) 03:51:21 435.215
SO-50 24 Nov 03:40:06 03:44:20 43° 115° (ESE) 03:48:42 436.795
JUGNU 24 Nov 03:44:19 03:45:58 11° 189° (S) 03:47:36 437.505
SRMSAT 24 Nov 03:49:52 03:52:38 13° 181° (S) 03:55:25 437.500
ITAMSAT 1 24 Nov 03:51:57 03:55:14 17° 297° (WNW) 03:58:30 435.822/435.867
PCSat 24 Nov 03:52:57 03:55:56 15° 45° (NE) 03:58:54 145.827
MOZHAYETS 4 24 Nov 04:02:53 04:07:18 51° 74° (ENE) 04:11:47
Gurwin Techsat 1B 24 Nov 04:11:16 04:15:03 20° 295° (WNW) 04:18:49 435.225
HORYU 2 24 Nov 04:23:33 04:27:10 24° 292° (WNW) 04:30:47 437.375
PRISM 24 Nov 04:26:34 04:29:13 17° 66° (ENE) 04:31:53 437.425
RS-15 24 Nov 04:27:17 04:32:45 15° 262° (W) 04:38:21 29.354- 29.394
O/OREOS (USA 219) 24 Nov 05:03:22 05:05:16 13° 98° (E) 05:07:09 437.305
BEESAT 3 24 Nov 05:16:55 05:20:56 42° 55° (NE) 05:24:53 437.485
JAS-2 24 Nov 05:17:08 05:24:15 67° 101° (E) 05:30:28 435.910
CUTE-I 24 Nov 05:17:16 05:20:15 15° 92° (E) 05:23:13 437.470
AO-7 24 Nov 05:17:19 05:25:27 58° 293° (WNW) 05:33:34 29.400- 29.500
STRAND 1 24 Nov 05:19:45 05:23:59 26° 67° (ENE) 05:28:13 437.568
SO-50 24 Nov 05:21:38 05:25:05 21° 313° (NW) 05:28:38 436.795
BEESAT 2 24 Nov 05:30:33 05:34:42 54° 57° (ENE) 05:38:46 435.950
PCSat 24 Nov 05:34:37 05:40:04 87° 244° (WSW) 05:45:28 145.827
CUBESAT XI-V 24 Nov 05:38:28 05:42:48 37° 71° (ENE) 05:47:09 437.345
MOZHAYETS 4 24 Nov 05:42:28 05:44:49 14° 269° (W) 05:47:11
AIST 2 24 Nov 05:55:49 06:00:01 49° 56° (NE) 06:04:08 435.215
PRISM 24 Nov 06:00:32 06:04:27 38° 261° (W) 06:08:24 437.425
ISS 24 Nov 06:10:43 06:13:42 31° 32° (NNE) 06:16:41 145.825
AIST 1 24 Nov 06:12:57 06:16:10 20° 74° (ENE) 06:19:21
Cubesat XI-IV 24 Nov 06:13:25 06:18:40 56° 101° (E) 06:23:51 437.490
O/OREOS (USA 219) 24 Nov 06:39:45 06:44:08 53° 293° (WNW) 06:48:32 437.305
CUTE-I 24 Nov 06:55:27 07:00:41 60° 287° (WNW) 07:05:53 437.470
BEESAT 3 24 Nov 06:56:16 06:58:47 16° 251° (WSW) 07:01:17 437.485
STRAND 1 24 Nov 06:58:21 07:02:59 34° 263° (W) 07:07:40 437.568
JAS-2 24 Nov 07:03:22 07:08:27 21° 301° (WNW) 07:13:10 435.910
BEESAT 2 24 Nov 07:10:46 07:12:29 12° 252° (WSW) 07:14:12 435.950
AO-7 24 Nov 07:13:52 07:16:27 12° 313° (NW) 07:19:02 29.400- 29.500
CUBESAT XI-V 24 Nov 07:16:53 07:20:19 20° 266° (W) 07:23:47 437.345
GONETS M04 24 Nov 07:28:40 07:36:12 34° 85° (E) 07:43:46
AIST 2 24 Nov 07:35:56 07:38:12 14° 252° (WSW) 07:40:26 435.215
ISS 24 Nov 07:47:29 07:50:16 25° 228° (SW) 07:53:02 145.825
AIST 1 24 Nov 07:50:02 07:53:51 30° 270° (W) 07:57:38
HO-68 24 Nov 07:53:48 07:58:53 20° 93° (E) 08:03:55 435.675
Cubesat XI-IV 24 Nov 07:54:48 07:58:16 18° 297° (WNW) 08:01:43 437.490
CANX-2 24 Nov 07:57:50 07:59:49 13° 92° (E) 08:01:48 2200.000
COMPASS 1 24 Nov 08:08:15 08:09:15 11° 91° (E) 08:10:15 437.405
DOVE 4 24 Nov 08:30:11 08:32:13 13° 93° (E) 08:34:17 437.250
CUTE 1.7 & AOD 2 24 Nov 08:31:15 08:35:01 29° 96° (E) 08:38:46 437.475
UKube-1 24 Nov 08:50:34 08:52:28 13° 92° (E) 08:54:21 .
GOMX 1 24 Nov 09:01:47 09:05:46 43° 99° (E) 09:09:48 467.674
Oscar 11 24 Nov 09:02:04 09:05:22 21° 95° (E) 09:08:39 145.826/435.025
SEEDS 24 Nov 09:06:22 09:10:38 67° 101° (E) 09:14:52 437.485
CUBEBUG 2 24 Nov 09:07:05 09:09:10 13° 93° (E) 09:11:15 437.445
POLYITAN 1 24 Nov 09:10:57 09:13:19 15° 66° (ENE) 09:15:42 437.675
UWE-3 24 Nov 09:11:28 09:13:23 13° 92° (E) 09:15:18 435.000/436.395/437.385
QB50P2 24 Nov 09:13:31 09:16:05 16° 66° (ENE) 09:18:39 145.880/145.840
CINEMA 3 24 Nov 09:18:47 09:22:30 30° 97° (E) 09:26:18 145.822/145.860
DUCHIFAT 1 24 Nov 09:20:24 09:23:20 18° 67° (ENE) 09:26:16 145.980
BRITE-PL 24 Nov 09:20:44 09:24:53 77° 284° (WNW) 09:29:03 437.365/2234.400
DX 1 24 Nov 09:22:32 09:26:24 31° 98° (E) 09:30:14 434.975-435.025
GONETS M04 24 Nov 09:24:12 09:32:37 50° 283° (WNW) 09:41:09
TIGRISAT 24 Nov 09:25:51 09:29:34 30° 71° (ENE) 09:33:17 435.000
AAUSAT CUBESAT 2 24 Nov 09:27:04 09:31:19 87° 102° (ESE) 09:35:34 437.432
CANX-2 24 Nov 09:31:52 09:36:00 47° 286° (WNW) 09:40:07 2200.000
UNISAT 6 24 Nov 09:38:04 09:42:07 42° 73° (ENE) 09:46:08 437.425
NANOSAT C BR1 24 Nov 09:38:37 09:42:19 29° 71° (ENE) 09:46:00 145.865
HO-68 24 Nov 09:39:58 09:47:05 68° 289° (WNW) 09:54:09 435.675
COMPASS 1 24 Nov 09:41:08 09:45:18 56° 285° (WNW) 09:49:27 437.405
DELFI C3 24 Nov 09:41:52 09:45:55 51° 100° (E) 09:49:56 145.870
VELOX 1 24 Nov 09:44:56 09:47:45 17° 93° (E) 09:50:32 145.980
HUMSAT D 24 Nov 09:47:23 09:50:05 17° 94° (E) 09:52:47 437.325/437.525
QB50P1 24 Nov 09:47:58 09:51:54 37° 72° (ENE) 09:55:51 145.935-145.965
50 SAT 24 Nov 09:49:14 09:51:20 14° 93° (E) 09:53:26 437.505
ZACube-1 24 Nov 09:49:14 09:52:58 30° 97° (E) 09:56:46 437.345
DOVE 4 24 Nov 10:06:15 10:10:12 42° 287° (WNW) 10:14:14 437.250
ANTELSAT 24 Nov 10:06:19 10:10:37 88° 257° (WSW) 10:14:54 437.575/2403.000
CUTE 1.7 & AOD 2 24 Nov 10:07:30 10:10:46 22° 291° (WNW) 10:14:02 437.475
BUGSAT 1 24 Nov 10:08:04 10:12:13 54° 74° (ENE) 10:16:22 437.445
AISAT 24 Nov 10:09:05 10:13:03 31° 97° (E) 10:16:58 437.250
POPSAT HIP 1 24 Nov 10:12:09 10:16:24 74° 76° (ENE) 10:20:40 437.405
FUNcube-1 24 Nov 10:24:26 10:28:40 80° 102° (ESE) 10:32:59 145.935
UKube-1 24 Nov 10:24:41 10:28:54 50° 287° (WNW) 10:33:04 .
CUBEBUG 1 24 Nov 10:29:39 10:32:40 18° 94° (E) 10:35:39 437.445
Oscar 11 24 Nov 10:37:44 10:41:32 30° 289° (WNW) 10:45:20 145.826/435.025
GOMX 1 24 Nov 10:41:27 10:43:33 14° 294° (WNW) 10:45:40 467.674
CUBEBUG 2 24 Nov 10:42:02 10:46:04 45° 286° (WNW) 10:50:11 437.445
POLYITAN 1 24 Nov 10:44:49 10:48:54 44° 261° (W) 10:52:59 437.675
SEEDS 24 Nov 10:45:25 10:45:53 10° 296° (WNW) 10:46:21 437.485
UWE-3 24 Nov 10:46:05 10:50:09 47° 286° (WNW) 10:54:17 435.000/436.395/437.385
QB50P2 24 Nov 10:47:38 10:51:40 41° 261° (W) 10:55:42 145.880/145.840
DUCHIFAT 1 24 Nov 10:55:04 10:58:57 34° 262° (W) 11:02:51 145.980
CINEMA 3 24 Nov 10:56:26 10:59:33 20° 291° (WNW) 11:02:43 145.822/145.860
DX 1 24 Nov 10:59:11 11:02:26 21° 293° (WNW) 11:05:41 434.975-435.025
TIGRISAT 24 Nov 11:03:11 11:06:21 20° 265° (W) 11:09:30 435.000
ESTCUBE 1 24 Nov 11:12:12 11:16:42 60° 101° (E) 11:21:09 437.505/2401.250
NANOSAT C BR1 24 Nov 11:14:58 11:18:12 21° 265° (W) 11:21:25 145.865
UNISAT 6 24 Nov 11:16:48 11:19:06 14° 267° (W) 11:21:25 437.425
DELFI C3 24 Nov 11:19:05 11:20:45 12° 295° (WNW) 11:22:25 145.870
VELOX 1 24 Nov 11:20:21 11:24:29 39° 288° (WNW) 11:28:35 145.980
HUMSAT D 24 Nov 11:22:12 11:25:59 35° 288° (WNW) 11:29:48 437.325/437.525
50 SAT 24 Nov 11:23:00 11:26:49 40° 287° (WNW) 11:30:37 437.505
QB50P1 24 Nov 11:25:15 11:27:55 16° 267° (W) 11:30:36 145.935-145.965
ZACube-1 24 Nov 11:26:02 11:29:10 21° 291° (WNW) 11:32:21 437.345
HO-68 24 Nov 11:31:04 11:33:27 12° 308° (NW) 11:35:50 435.675
AISAT 24 Nov 11:46:09 11:49:29 21° 292° (WNW) 11:52:47 437.250
BUGSAT 1 24 Nov 11:46:39 11:48:00 11° 268° (W) 11:49:22 437.445
YUBILEINY 24 Nov 11:53:39 11:56:37 12° 60° (ENE) 11:59:35 435.215
TISAT 1 24 Nov 11:55:48 11:59:49 42° 99° (E) 12:03:47 437.305
SPROUT 24 Nov 12:00:02 12:04:06 41° 99° (E) 12:08:08 437.525
CUBEBUG 1 24 Nov 12:05:10 12:09:08 35° 289° (WNW) 12:13:03 437.445
M-CUBED/EXP-1 PRIME 24 Nov 12:11:38 12:13:40 12° 95° (E) 12:15:40 437.505
SO-50 24 Nov 12:13:24 12:17:34 27° 50° (NE) 12:21:45 436.795
BEESAT 24 Nov 12:37:29 12:40:39 17° 93° (E) 12:43:47 436.000
Oscar 19 24 Nov 12:38:05 12:43:06 61° 73° (ENE) 12:48:09 437.125/150
CUSAT 1 24 Nov 12:40:15 12:42:39 24° 96° (E) 12:44:52 437.405
ESTCUBE 1 24 Nov 12:51:04 12:53:02 13° 296° (WNW) 12:54:59 437.505/2401.250
DANDE 24 Nov 12:58:08 13:00:59 38° 97° (E) 13:03:29 436.750
ITAMSAT 1 24 Nov 13:27:10 13:32:21 70° 74° (ENE) 13:37:33 435.822/435.867
ITUPSAT 1 24 Nov 13:30:49 13:35:37 64° 101° (ESE) 13:40:21 437.325
KKS-1 24 Nov 13:32:41 13:34:26 12° 92° (E) 13:36:11 437.445
TISAT 1 24 Nov 13:32:53 13:35:17 15° 294° (WNW) 13:37:41 437.305
SPROUT 24 Nov 13:37:16 13:39:50 16° 294° (WNW) 13:42:23 437.525
AUBIESAT-1 24 Nov 13:40:08 13:45:04 83° 288° (WNW) 13:49:53 437.475
SWISSCUBE 24 Nov 13:42:26 13:47:16 87° 285° (WNW) 13:52:03 437.505
M-CUBED/EXP-1 PRIME 24 Nov 13:44:10 13:49:06 70° 290° (WNW) 13:53:55 437.505
HORYU 2 24 Nov 13:44:13 13:47:35 22° 68° (ENE) 13:50:58 437.375
YUBILEINY 24 Nov 13:46:27 13:55:10 70° 81° (E) 14:03:47 435.215
Gurwin Techsat 1B 24 Nov 13:49:30 13:54:44 64° 74° (ENE) 14:00:00 435.225
SO-50 24 Nov 13:53:43 13:58:10 36° 246° (WSW) 14:02:38 436.795
VERMONT LUNAR 24 Nov 13:57:47 14:00:20 18° 146° (SE) 14:02:55 437.305
BEESAT 24 Nov 14:14:07 14:18:40 44° 288° (WNW) 14:23:12 436.000
Oscar 19 24 Nov 14:20:14 14:22:49 14° 269° (W) 14:25:26 437.125/150
AO-7 24 Nov 14:22:26 14:29:41 35° 61° (ENE) 14:36:57 29.400- 29.500
RS-15 24 Nov 14:24:53 14:31:44 19° 100° (E) 14:38:31 29.354- 29.394
STARS 24 Nov 14:30:01 14:34:05 36° 98° (E) 14:38:08 437.465
MaSat-1 24 Nov 14:46:44 14:49:19 24° 110° (ESE) 14:51:43 437.345
KKS-1 24 Nov 15:07:03 15:11:23 54° 286° (WNW) 15:15:42 437.445
ITAMSAT 1 24 Nov 15:10:10 15:12:18 12° 269° (W) 15:14:26 435.822/435.867
ITUPSAT 1 24 Nov 15:10:40 15:12:56 13° 297° (WNW) 15:15:11 437.325
O/OREOS (USA 219) 24 Nov 15:13:06 15:16:20 19° 59° (ENE) 15:19:33 437.305
PHONESAT 2.4 24 Nov 15:17:14 15:20:48 46° 154° (SSE) 15:24:23 2401.200-2431.200
AUBIESAT-1 24 Nov 15:18:33 15:19:14 10° 304° (NW) 15:19:54 437.475
HORYU 2 24 Nov 15:20:09 15:24:04 31° 263° (W) 15:28:01 437.375
JAS-2 24 Nov 15:26:04 15:32:20 29° 63° (ENE) 15:38:45 435.910
Gurwin Techsat 1B 24 Nov 15:32:21 15:35:06 14° 269° (W) 15:37:53 435.225
VERMONT LUNAR 24 Nov 15:34:52 15:38:29 79° 160° (SSE) 15:42:07 437.305
YUBILEINY 24 Nov 15:44:52 15:51:02 22° 279° (W) 15:57:13 435.215
MOZHAYETS 4 24 Nov 16:01:37 16:04:09 14° 92° (E) 16:06:40
STARS 24 Nov 16:07:16 16:10:17 18° 293° (WNW) 16:13:17 437.465
AO-7 24 Nov 16:14:12 16:22:09 50° 258° (WSW) 16:30:11 29.400- 29.500
MaSat-1 24 Nov 16:22:43 16:23:53 12° 301° (WNW) 16:25:01 437.345
RS-15 24 Nov 16:31:26 16:42:27 89° 119° (ESE) 16:53:26 29.354- 29.394
CUTE-I 24 Nov 16:37:03 16:41:06 23° 65° (ENE) 16:45:10 437.470
O/OREOS (USA 219) 24 Nov 16:51:43 16:55:50 37° 255° (WSW) 16:59:57 437.305
PHONESAT 2.4 24 Nov 16:55:53 16:59:35 62° 350° (N) 17:03:17 2401.200-2431.200
JAS-2 24 Nov 17:09:22 17:16:44 60° 260° (W) 17:24:31 435.910
VERMONT LUNAR 24 Nov 17:13:33 17:17:07 53° 357° (N) 17:20:41 437.305
Cubesat XI-IV 24 Nov 17:33:33 17:38:55 77° 75° (ENE) 17:44:17 437.490
MOZHAYETS 4 24 Nov 17:37:07 17:41:38 50° 287° (WNW) 17:46:07
CUBESAT XI-V 24 Nov 17:40:13 17:41:02 10° 90° (E) 17:41:52 437.345
GONETS M04 24 Nov 17:42:36 17:46:50 14° 61° (ENE) 17:51:02
PRISM 24 Nov 17:45:42 17:49:33 33° 98° (E) 17:53:22 437.425
CUTE-I 24 Nov 18:15:46 18:20:51 44° 261° (W) 18:25:58 437.470
HO-68 24 Nov 18:23:04 18:26:22 14° 54° (NE) 18:29:40 435.675
PCSat 24 Nov 18:33:45 18:36:50 16° 104° (ESE) 18:39:55 145.827
PHONESAT 2.4 24 Nov 18:34:57 18:38:38 59° 8° (N) 18:42:19 2401.200-2431.200
AIST 1 24 Nov 18:42:11 18:44:12 13° 85° (E) 18:46:14
RS-15 24 Nov 18:47:20 18:56:20 28° 324° (NW) 19:05:28 29.354- 29.394
VERMONT LUNAR 24 Nov 18:52:11 18:55:49 75° 14° (NNE) 18:59:27 437.305
BRITE-PL 24 Nov 18:55:51 18:56:22 10° 64° (ENE) 18:56:52 437.365/2234.400
STRAND 1 24 Nov 19:10:14 19:15:22 87° 284° (WNW) 19:20:27 437.568
BEESAT 3 24 Nov 19:12:30 19:14:20 13° 108° (ESE) 19:16:11 437.485
CUBESAT XI-V 24 Nov 19:14:16 19:18:55 67° 285° (WNW) 19:23:30 437.345
Cubesat XI-IV 24 Nov 19:17:42 19:19:31 12° 270° (W) 19:21:21 437.490
PRISM 24 Nov 19:21:53 19:24:51 19° 293° (WNW) 19:27:49 437.425
CUTE 1.7 & AOD 2 24 Nov 19:23:40 19:26:28 18° 67° (ENE) 19:29:16 437.475
BEESAT 2 24 Nov 19:25:52 19:28:30 17° 109° (ESE) 19:31:10 435.950
DOVE 4 24 Nov 19:35:00 19:37:12 13° 66° (ENE) 19:39:20 437.250
GONETS M04 24 Nov 19:36:20 19:45:13 77° 82° (E) 19:53:59
AIST 2 24 Nov 19:54:03 19:56:45 17° 109° (ESE) 19:59:28 435.215
Oscar 11 24 Nov 19:56:33 19:58:44 14° 65° (ENE) 20:00:56 145.826/435.025
SEEDS 24 Nov 19:57:17 20:01:07 36° 72° (ENE) 20:04:58 437.485
HO-68 24 Nov 20:05:43 20:12:53 76° 72° (ENE) 20:20:05 435.675
GOMX 1 24 Nov 20:08:03 20:12:37 42° 73° (ENE) 20:16:55 467.674
PHONESAT 2.4 24 Nov 20:13:50 20:17:28 54° 204° (SSW) 20:21:06 2401.200-2431.200
PCSat 24 Nov 20:14:17 20:19:38 64° 300° (WNW) 20:25:02 145.827
AAUSAT CUBESAT 2 24 Nov 20:16:46 20:20:43 45° 73° (ENE) 20:24:42 437.432
DX 1 24 Nov 20:16:59 20:20:24 23° 68° (ENE) 20:23:50 434.975-435.025
AIST 1 24 Nov 20:17:10 20:21:23 46° 280° (W) 20:25:39
CINEMA 3 24 Nov 20:19:36 20:23:06 24° 70° (ENE) 20:26:31 145.822/145.860
CANX-2 24 Nov 20:22:57 20:27:10 85° 258° (WSW) 20:31:25 2200.000
BRITE-PL 24 Nov 20:29:09 20:34:19 83° 258° (WSW) 20:39:05 437.365/2234.400
DELFI C3 24 Nov 20:29:30 20:32:52 26° 70° (ENE) 20:36:15 145.870
COMPASS 1 24 Nov 20:30:53 20:35:02 78° 77° (ENE) 20:39:13 437.405
VERMONT LUNAR 24 Nov 20:30:55 20:34:09 30° 210° (SSW) 20:37:21 437.305
VELOX 1 24 Nov 20:42:19 20:44:26 13° 64° (ENE) 20:46:33 145.980
ZACube-1 24 Nov 20:44:40 20:47:43 20° 69° (ENE) 20:50:45 437.345
BEESAT 3 24 Nov 20:48:06 20:52:05 50° 304° (WNW) 20:56:09 437.485
CUTE 1.7 & AOD 2 24 Nov 20:58:15 21:02:07 35° 262° (W) 21:06:00 437.475
BEESAT 2 24 Nov 21:02:35 21:06:27 39° 305° (NW) 21:10:24 435.950
AISAT 24 Nov 21:06:01 21:09:38 24° 68° (ENE) 21:13:15 437.250
RS-15 24 Nov 21:08:31 21:14:13 15° 360° (N) 21:19:59 29.354- 29.394
DOVE 4 24 Nov 21:09:58 21:14:35 55° 260° (W) 21:18:57 437.250
UKube-1 24 Nov 21:17:45 21:22:05 75° 258° (WSW) 21:26:28 .
FUNcube-1 24 Nov 21:18:55 21:23:00 48° 74° (ENE) 21:27:01 145.935
CUBEBUG 1 24 Nov 21:25:27 21:27:40 14° 65° (ENE) 21:29:52 437.445
Oscar 11 24 Nov 21:30:20 21:34:28 48° 261° (W) 21:38:39 145.826/435.025
AIST 2 24 Nov 21:31:01 21:35:01 41° 305° (NW) 21:39:06 435.215
SEEDS 24 Nov 21:34:26 21:37:04 16° 267° (W) 21:39:43 437.485
UNISAT 6 24 Nov 21:34:44 21:35:33 10° 91° (E) 21:36:23 437.425
GONETS M04 24 Nov 21:35:08 21:40:57 20° 281° (W) 21:46:45
CUBEBUG 2 24 Nov 21:38:36 21:42:53 69° 259° (WSW) 21:47:06 437.445
UWE-3 24 Nov 21:41:34 21:45:50 74° 258° (WSW) 21:50:02 435.000/436.395/437.385
GOMX 1 24 Nov 21:47:36 21:50:50 18° 266° (W) 21:53:57 467.674
DX 1 24 Nov 21:52:39 21:56:28 29° 263° (W) 22:00:19 434.975-435.025
PHONESAT 2.4 24 Nov 21:54:23 21:55:45 12° 218° (SW) 21:57:06 2401.200-2431.200
AAUSAT CUBESAT 2 24 Nov 21:54:46 21:56:38 13° 268° (W) 21:58:30 437.432
CINEMA 3 24 Nov 21:56:25 22:00:12 27° 263° (W) 22:03:53 145.822/145.860
HO-68 24 Nov 21:56:40 22:01:12 18° 268° (W) 22:05:46 435.675
ANTELSAT 24 Nov 22:00:56 22:04:26 22° 95° (E) 22:07:58 437.575/2403.000
POPSAT HIP 1 24 Nov 22:01:26 22:03:35 14° 93° (E) 22:05:44 437.405
PCSat 24 Nov 22:03:17 22:04:08 10° 319° (NW) 22:05:00 145.827
DELFI C3 24 Nov 22:04:58 22:08:07 22° 265° (W) 22:11:17 145.870
50 SAT 24 Nov 22:09:50 22:13:53 83° 258° (WSW) 22:17:56 437.505
ESTCUBE 1 24 Nov 22:10:13 22:14:31 44° 72° (ENE) 22:18:51 437.505/2401.250
HUMSAT D 24 Nov 22:12:26 22:16:32 63° 259° (W) 22:20:38 437.325/437.525
VELOX 1 24 Nov 22:16:08 22:20:32 56° 259° (W) 22:24:56 145.980
ZACube-1 24 Nov 22:20:10 22:23:54 30° 263° (W) 22:27:37 437.345
POLYITAN 1 24 Nov 22:32:47 22:36:37 33° 98° (E) 22:40:25 437.675
QB50P2 24 Nov 22:35:17 22:39:10 35° 98° (E) 22:43:03 145.880/145.840
DUCHIFAT 1 24 Nov 22:42:05 22:46:05 41° 99° (E) 22:50:04 145.980
AISAT 24 Nov 22:42:17 22:46:08 28° 263° (W) 22:50:01 437.250
TISAT 1 24 Nov 22:47:09 22:50:42 26° 70° (ENE) 22:54:15 437.305
ISS 24 Nov 22:51:19 22:54:03 24° 132° (SE) 22:56:47 145.825
SPROUT 24 Nov 22:53:00 22:56:36 26° 70° (ENE) 23:00:12 437.525
TIGRISAT 24 Nov 22:55:17 22:59:43 90° 108° (ESE) 23:04:15 435.000
FUNcube-1 24 Nov 22:57:57 22:59:36 12° 268° (W) 23:01:14 145.935
CUBEBUG 1 24 Nov 22:59:13 23:03:34 53° 260° (W) 23:07:56 437.445
M-CUBED/EXP-1 PRIME 24 Nov 23:00:54 23:02:07 11° 56° (ENE) 23:03:22 437.505
NANOSAT C BR1 24 Nov 23:01:08 23:05:21 73° 102° (ESE) 23:09:33 145.865
UNISAT 6 24 Nov 23:08:17 23:12:41 64° 285° (WNW) 23:17:10 437.425
QB50P1 24 Nov 23:10:51 23:15:05 86° 283° (WNW) 23:19:18 145.935-145.965
CUSAT 1 24 Nov 23:18:02 23:22:11 29° 79° (E) 23:27:26 437.405
RS-15 24 Nov 23:23:01 23:32:12 28° 36° (NE) 23:41:38 29.354- 29.394
BUGSAT 1 24 Nov 23:28:08 23:32:12 64° 285° (WNW) 23:36:11 437.445
POPSAT HIP 1 24 Nov 23:35:42 23:39:42 43° 287° (WNW) 23:43:41 437.405
ANTELSAT 24 Nov 23:37:19 23:41:13 31° 289° (WNW) 23:45:11 437.575/2403.000
DANDE 24 Nov 23:38:16 23:42:29 38° 80° (E) 23:48:03 436.750
BEESAT 24 Nov 23:42:51 23:45:57 17° 65° (ENE) 23:49:04 436.000
ESTCUBE 1 24 Nov 23:48:50 23:51:35 16° 267° (W) 23:54:21 437.505/2401.250
JUGNU 24 Nov 23:53:48 23:54:42 10° 170° (S) 23:55:36 437.505
POLYITAN 1 25 Nov 00:09:22 00:12:19 19° 292° (WNW) 00:15:17 437.675
QB50P2 25 Nov 00:11:59 00:14:49 18° 293° (WNW) 00:17:39 145.880/145.840
DUCHIFAT 1 25 Nov 00:19:10 00:21:36 15° 294° (WNW) 00:24:01 145.980
TISAT 1 25 Nov 00:23:01 00:26:28 24° 264° (W) 00:29:56 437.305
MaSat-1 25 Nov 00:27:11 00:28:56 19° 61° (ENE) 00:30:44 437.345
ISS 25 Nov 00:27:37 00:30:36 31° 328° (NNW) 00:33:35 145.825
AUBIESAT-1 25 Nov 00:28:06 00:32:02 83° 253° (WSW) 00:36:25 437.475
SPROUT 25 Nov 00:29:06 00:32:37 24° 264° (W) 00:36:08 437.525
M-CUBED/EXP-1 PRIME 25 Nov 00:32:34 00:36:28 66° 254° (WSW) 00:40:47 437.505
ITUPSAT 1 25 Nov 00:35:51 00:40:35 60° 74° (ENE) 00:45:20 437.325
